Temp
31 30 30 30 30 29 29 29 28 28 28 28 27 27 27 27 26 26 25 25 25 25 25 24 24 24 24 24 24 24 24 24 24 24 23 23 23 23 24 24 24 24 24 24 25 25 25 24 24 24 24 23 23 23 23 23 23 23 23 23 22 22 23
31 31 31 30 30 29 29 29 28 28 28 28 28 27 27 27 27 26 26 25 25 25 25 25 24 24 24 24 24 24 24 24 24 24 23 23 23 23 24 24 24 24 24 25 25 25 25 24 24 24 24 23 23 23 23 23 23 23 23 23 22 23 23
31 31 31 30 30 30 29 29 29 28 29 28 28 28 27 27 27 26 26 25 25 25 25 25 24 24 24 24 24 24 24 24 24 24 23 23 23 23 24 24 24 24 24 25 25 25 25 24 24 24 24 24 23 23 23 23 23 23 23 23 23 23 23
32 32 31 31 30 30 30 29 29 29 29 29 29 28 28 27 27 27 26 26 25 25 25 25 24 24 24 24 24 24 24 24 24 24 24 23 23 23 23 24 24 24 24 24 25 24 24 24 24 24 24 24 23 23 23 23 23 23 23 23 23 23 23
32 32 32 31 31 30 30 30 29 29 29 29 29 28 28 28 27 27 26 26 26 25 25 25 25 24 24 24 24 24 24 24 24 24 24 23 24 23 23 24 24 24 24 24 24 24 24 24 24 24 23 23 23 23 23 23 23 23 23 23 23 23 23
32 32 32 31 31 31 30 30 30 29 29 29 29 29 28 28 27 27 27 26 26 26 25 25 25 24 24 24 24 24 24 24 24 24 24 24 23 23 23 23 24 24 24 24 24 24 24 24 24 24 23 23 23 23 23 23 23 23 23 23 23 23 23
32 32 32 32 32 31 31 31 30 30 30 30 30 29 29 28 28 27 27 26 26 26 25 25 25 25 24 24 24 24 24 24 24 24 24 23 23 23 23 23 24 24 24 24 24 24 24 24 24 24 24 23 23 23 23 23 23 23 23 23 23 23 23
33 32 32 32 32 32 31 31 31 30 30 30 30 29 29 28 28 28 27 27 26 26 26 25 25 25 25 24 24 24 24 24 24 24 23 23 23 23 23 23 23 24 24 23 24 24 24 24 24 24 23 23 23 23 23 23 23 23 23 23 23 23 23
34 33 33 32 32 32 32 32 31 30 30 29 29 29 29 29 28 28 28 27 27 26 26 26 25 25 25 24 24 24 24 24 24 24 23 23 23 23 23 23 23 23 23 23 23 24 24 24 24 23 23 23 23 23 23 23 23 23 23 23 23 23 23
34 33 33 33 32 32 32 32 31 30 30 29 29 29 29 29 28 28 28 27 27 26 26 26 26 25 25 25 24 24 24 24 24 24 23 23 23 23 23 23 23 23 23 23 23 23 23 23 23 23 23 23 23 23 23 23 23 23 23 23 23 23 23
33 33 33 33 32 32 32 32 31 31 30 29 28 29 29 28 28 28 28 28 27 27 27 26 26 26 25 25 24 24 24 24 24 24 24 23 23 23 23 23 23 23 23 23 23 23 23 23 23 23 23 23 23 23 23 23 23 23 23 23 23 23 23
33 33 33 33 33 33 32 32 31 31 30 29 28 29 29 28 28 28 28 28 28 27 27 27 26 26 25 25 25 24 24 24 24 24 24 24 24 23 23 23 23 23 23 23 23 23 23 23 23 23 23 23 23 23 23 23 23 23 23 23 23 23 23
33 33 33 33 33 33 32 32 31 30 30 29 29 29 29 28 28 28 28 28 28 27 27 27 26 26 26 25 25 25 24 24 24 24 24 24 24 24 23 23 23 23 23 23 23 23 23 23 23 23 23 23 23 23 23 23 23 23 23 23 23 23 23
32 33 33 33 33 33 32 32 31 30 30 29 29 29 29 29 28 28 28 28 28 28 27 27 26 26 26 25 25 25 25 25 24 24 24 24 24 24 24 23 23 23 23 23 23 23 23 23 23 23 23 23 23 23 23 23 23 23 22 22 22 22 22
32 33 33 33 33 33 32 32 31 30 30 29 29 28 28 28 28 28 28 28 28 28 27 27 27 26 26 25 25 25 25 25 24 24 24 24 24 24 24 23 23 23 23 23 23 23 23 23 23 23 23 23 23 23 22 22 22 22 22 22 22 22 22
33 33 33 33 33 32 32 31 31 30 30 30 29 28 28 28 28 28 28 28 28 28 28 27 27 26 26 26 25 25 25 25 25 24 24 24 24 24 24 24 23 23 23 23 23 23 23 23 23 23 23 23 22 22 22 22 22 22 22 22 22 22 22
33 33 32 32 32 32 32 31 31 30 29 29 29 28 28 28 28 28 28 28 28 28 28 27 27 26 26 26 26 25 25 25 25 24 24 24 24 24 24 23 23 23 23 23 23 23 23 23 23 23 23 22 22 22 22 22 22 22 22 22 22 22 22
32 32 32 32 32 32 31 31 31 30 29 29 29 28 28 29 28 28 28 28 28 28 28 27 27 26 26 26 26 25 25 25 25 24 24 24 24 24 24 23 23 23 23 23 23 23 23 23 23 23 23 22 22 22 22 22 22 22 22 22 22 22 22
30 31 31 32 32 32 31 31 31 30 30 29 29 28 29 29 28 28 29 29 29 28 28 28 27 27 26 26 26 26 25 25 25 25 24 24 24 24 24 24 23 23 23 23 23 23 23 23 23 23 23 22 22 22 22 22 22 22 22 22 22 22 21
29 29 30 30 31 31 31 31 30 30 29 29 29 29 29 29 29 29 29 29 29 28 28 28 27 27 27 26 26 26 25 25 25 25 24 24 24 24 24 24 24 24 23 23 23 23 23 23 23 23 23 22 22 22 22 22 22 22 22 22 22 21 20
31 31 30 30 30 30 30 30 30 30 29 29 29 30 29 29 29 29 29 29 29 28 28 28 28 27 27 27 26 26 25 25 25 25 25 24 24 24 24 24 24 24 23 23 23 23 23 23 23 23 23 23 22 22 22 22 22 22 22 22 21 21 20
30 30 31 31 31 30 29 29 29 29 29 29 29 29 29 30 30 29 29 29 29 28 28 28 28 27 27 27 26 26 26 25 25 25 25 24 24 24 24 24 24 24 23 23 23 23 23 23 23 23 23 22 22 22 22 22 22 22 22 22 21 20 19
26 26 27 29 30 30 29 28 29 29 29 29 29 29 30 30 30 29 29 29 29 28 28 28 28 28 27 27 27 26 26 26 25 25 25 24 24 24 24 24 24 24 23 23 23 23 23 23 23 23 23 23 22 22 22 22 22 22 22 22 21 20 19
23 23 23 24 26 27 27 28 30 30 29 29 29 29 30 30 30 29 29 29 28 28 28 28 28 28 27 27 27 27 26 26 26 25 25 24 24 24 24 24 24 24 24 23 23 23 23 23 23 23 23 23 22 23 23 22 22 22 22 22 20 19 19
21 22 21 22 23 23 23 26 29 30 30 29 28 29 30 30 30 29 28 28 28 28 28 28 28 28 28 28 28 27 27 26 26 26 25 25 25 24 24 24 24 24 24 23 23 23 23 23 23 23 23 23 23 23 23 22 22 22 22 21 20 19 19
20 20 21 21 21 21 21 23 28 30 29 28 29 29 29 29 29 29 28 28 28 28 28 28 28 28 28 28 28 27 27 26 26 26 26 25 25 25 25 24 24 24 24 24 24 23 23 23 23 23 22 22 23 23 22 22 22 22 22 21 21 19 18
19 19 20 20 20 21 20 22 25 27 28 29 30 30 30 29 28 28 28 28 28 28 28 29 29 29 29 28 28 28 27 27 26 26 26 26 25 25 25 25 24 24 24 24 24 23 23 23 23 22 22 22 22 22 22 22 22 22 22 21 21 19 18
19 20 20 20 20 20 20 20 22 23 25 27 29 30 30 30 28 28 27 27 27 28 29 29 29 29 29 28 28 28 27 27 26 26 26 26 25 25 25 25 24 24 24 24 24 23 23 22 22 22 22 22 22 22 22 22 22 22 22 22 21 20 18
19 19 20 20 20 19 19 20 20 20 22 24 27 29 30 29 28 27 27 27 28 29 29 29 29 29 28 28 28 28 28 27 27 26 26 26 26 25 25 24 24 24 24 24 24 23 22 22 22 22 21 21 22 22 21 21 21 21 22 21 21 20 19
19 19 19 19 19 19 18 19 19 20 20 22 24 26 28 29 28 27 26 27 29 29 29 29 29 29 29 28 28 28 28 27 27 26 26 26 26 25 25 24 24 24 24 24 23 23 22 21 21 21 21 21 21 21 20 20 20 21 21 21 21 21 20
19 18 19 19 18 18 18 19 19 20 20 21 23 23 24 26 26 26 26 28 29 29 29 29 29 29 29 29 28 28 28 27 27 26 26 26 25 25 25 24 24 24 23 23 23 22 21 20 21 21 21 21 20 19 19 19 20 21 21 21 20 20 20
19 18 19 19 19 18 18 19 19 19 19 20 22 23 23 24 24 24 25 27 28 29 29 29 29 29 29 29 29 28 28 27 27 26 26 26 26 25 25 25 24 23 22 22 22 21 20 20 20 21 21 20 19 18 18 19 21 22 21 21 21 20 20
19 19 19 19 19 19 19 19 19 19 19 19 20 20 22 23 23 23 24 24 26 27 29 30 29 29 29 28 28 28 28 27 27 27 26 26 25 25 25 24 24 22 22 21 21 20 20 20 20 21 20 19 18 18 19 20 21 21 20 21 21 20 20
18 19 19 19 19 19 19 19 19 19 19 19 19 19 19 20 21 22 23 23 23 24 26 28 29 28 28 28 28 28 28 28 27 27 26 25 25 25 24 23 23 22 22 22 21 21 20 20 20 20 19 18 18 18 18 18 18 19 20 21 22 21 19
18 18 18 18 19 19 19 19 19 19 19 19 19 19 19 19 19 20 20 21 22 22 23 24 26 26 26 26 26 26 26 25 25 24 24 24 24 24 23 23 23 22 22 22 22 22 21 20 19 19 19 18 18 18 18 17 17 19 21 22 22 21 20
18 18 18 18 18 19 19 19 19 19 19 19 19 19 19 19 19 19 19 20 20 21 21 22 23 23 24 24 23 23 23 23 22 22 22 22 22 21 21 21 21 21 21 21 21 22 22 22 21 20 19 19 19 20 21 20 19 21 22 22 21 21 21
18 18 18 18 18 18 19 19 19 19 19 19 20 20 20 19 19 19 19 19 20 20 20 20 21 21 21 21 21 21 21 21 21 21 21 21 20 19 18 18 19 20 20 20 21 22 23 23 22 20 19 19 20 21 22 22 22 22 22 21 21 21 20
17 18 18 18 18 18 18 18 18 18 18 19 20 20 20 20 20 20 20 20 20 20 20 20 20 20 20 20 20 20 20 20 20 19 19 18 18 18 18 17 16 16 16 18 19 20 21 21 20 20 19 20 21 21 20 21 22 22 21 21 21 20 20
Height
694 696 697 699 701 704 705 705 708 711 713 716 718 721 726 729 733 736 739 742 745 748 752 754 757 759 761 763 766 769 772 776 778 781 784 786 788 791 793 795 798 799 800 801 801 803 805 807 810 812 814 816 818 820 822 824 825 826 828 829 831 832 834
693 693 693 695 697 699 699 700 703 705 708 711 714 717 721 724 727 730 733 737 741 744 747 750 753 755 757 759 762 766 769 772 775 778 781 783 786 788 790 793 795 797 798 799 800 801 804 806 808 810 813 815 817 819 821 822 824 825 827 828 830 831 833
687 688 688 689 690 691 693 696 699 701 703 706 709 714 716 719 721 724 728 732 736 741 744 747 749 751 753 756 759 762 765 769 771 774 777 779 782 784 787 790 792 794 796 797 799 800 802 804 806 808 811 813 816 818 819 821 822 824 826 827 829 830 831
681 681 681 682 683 686 689 691 694 696 699 701 703 707 710 712 716 720 725 728 731 736 739 741 744 747 750 752 755 758 761 765 767 770 773 776 779 782 784 787 789 792 794 795 797 799 800 802 804 807 809 811 814 815 817 819 821 823 824 826 827 828 829
677 676 677 679 680 684 685 686 688 690 693 696 699 702 704 708 713 718 721 724 727 731 733 737 740 743 746 748 751 754 757 761 764 767 770 773 776 779 781 783 785 788 791 793 795 797 799 800 802 804 807 809 812 813 815 817 819 821 822 823 825 826 827
673 673 673 674 676 678 679 680 682 683 687 690 693 697 700 706 712 715 718 721 725 728 731 735 738 739 742 744 747 751 754 758 760 763 767 770 773 775 777 780 782 785 788 791 793 795 796 798 800 802 804 807 809 811 813 815 816 818 820 821 822 823 824
665 666 666 667 669 670 672 674 675 677 681 684 688 693 698 704 707 710 714 718 721 725 728 731 733 735 738 740 744 748 751 754 757 760 763 766 770 771 773 776 779 782 785 788 791 792 794 796 797 800 802 804 807 808 810 812 813 815 816 818 819 820 821
657 658 659 661 661 663 665 667 669 672 676 681 686 691 695 699 702 706 710 713 717 721 724 725 727 730 733 737 741 744 747 751 754 757 760 763 766 767 770 773 775 778 782 785 788 790 791 793 795 797 800 802 804 806 807 809 810 812 813 814 815 816 818
650 651 652 653 654 656 658 660 663 666 671 677 681 685 689 693 697 701 704 708 713 716 717 719 722 725 730 734 737 740 744 748 750 753 756 758 761 763 765 768 772 775 778 781 784 787 789 791 793 795 797 799 801 803 804 806 807 808 809 810 812 813 815
649 650 649 649 650 652 653 656 660 665 669 673 676 680 684 688 691 695 699 704 707 709 711 714 718 722 727 730 733 738 741 744 746 749 752 754 756 758 761 765 768 771 775 778 781 784 786 789 790 792 794 796 798 799 801 802 803 804 805 806 808 810 812
647 648 648 649 649 650 652 654 658 662 665 667 671 675 678 682 686 690 694 698 700 703 707 711 715 719 723 726 731 734 737 740 743 745 747 750 752 754 757 761 765 768 771 774 778 781 783 786 787 789 790 792 793 795 796 797 799 800 801 803 806 808 810
643 644 646 647 646 647 648 650 654 657 659 662 666 670 673 677 681 685 688 691 694 698 702 707 711 715 718 723 726 730 732 735 738 740 743 746 748 751 755 758 761 764 767 770 773 777 780 782 784 785 786 788 789 791 792 794 795 796 798 801 803 805 807
638 639 640 641 642 643 645 648 650 652 654 657 660 664 668 672 676 680 684 687 690 694 698 702 706 710 714 717 720 724 727 729 732 736 739 742 745 749 753 755 758 760 763 766 769 773 775 777 780 781 782 783 785 786 788 790 792 793 795 798 800 802 804
637 636 636 637 639 642 644 646 647 647 650 652 655 660 664 668 672 675 679 683 686 691 694 697 702 705 708 712 715 718 720 723 728 732 735 739 743 747 750 753 755 757 760 763 765 768 770 772 774 776 778 779 781 783 785 787 788 790 792 795 797 799 801
636 634 634 634 635 637 640 641 642 643 645 647 651 656 660 664 668 672 676 680 683 686 688 692 696 699 703 707 709 711 714 719 724 728 732 737 740 743 746 749 752 754 757 759 760 763 765 767 770 772 774 776 778 780 782 783 784 785 788 791 793 796 798
631 630 629 629 630 631 633 636 637 638 641 644 648 651 655 659 663 666 670 674 678 681 684 688 692 695 699 701 701 705 711 716 720 724 729 733 736 739 742 745 749 751 753 754 755 757 760 763 765 767 769 772 774 776 778 779 780 781 784 787 789 792 795
628 626 625 625 625 627 628 630 633 636 639 641 643 646 649 653 656 660 664 668 672 675 679 684 688 691 693 694 696 702 708 712 716 720 724 727 731 735 739 742 745 747 749 750 751 752 755 757 760 762 765 767 769 772 774 774 775 777 780 783 785 788 792
627 624 622 621 622 624 625 626 629 632 635 636 638 641 644 648 652 657 660 664 666 670 675 680 683 686 687 689 694 700 704 708 712 716 720 723 727 731 735 739 742 743 744 745 746 748 750 752 754 756 759 762 765 767 769 769 771 773 775 778 781 784 789
628 624 621 619 618 619 621 621 622 624 626 628 631 635 638 642 647 651 654 657 661 666 672 676 678 681 683 686 692 696 699 704 708 712 715 718 722 726 731 734 736 737 738 739 741 744 745 746 748 750 754 757 759 762 763 765 766 768 771 773 776 782 787
626 624 622 620 618 617 616 616 617 618 620 622 625 629 633 638 642 645 649 653 659 664 668 671 674 677 679 682 687 690 695 700 703 707 710 714 718 722 725 727 728 730 732 735 738 739 739 740 742 745 748 750 753 756 758 759 761 764 767 769 773 780 784
623 622 621 619 618 618 616 615 615 616 618 620 622 626 632 636 639 643 648 652 657 660 662 665 668 670 673 677 682 686 691 694 698 702 706 710 714 717 718 720 722 724 727 730 732 734 734 735 737 739 742 745 748 751 752 754 756 759 762 765 771 777 780
622 620 618 615 615 615 616 615 614 614 614 616 620 624 628 632 636 641 645 649 653 655 657 661 663 666 669 673 677 681 685 689 693 697 701 705 709 710 712 714 716 718 721 724 727 729 730 731 732 734 737 740 743 745 747 749 751 754 758 762 768 774 778
623 621 619 615 612 610 611 613 614 615 616 617 619 621 624 627 632 637 641 645 649 652 655 658 660 662 665 669 672 676 679 683 687 691 695 699 702 703 706 708 710 713 716 719 722 724 725 726 727 729 732 735 737 740 742 744 747 749 753 758 764 769 774
622 622 620 617 614 611 609 610 612 615 618 620 621 620 620 625 630 635 639 642 645 648 652 654 655 657 660 663 666 669 673 677 681 685 689 692 694 697 700 703 705 708 711 714 717 718 720 722 724 726 728 730 732 735 737 739 742 745 749 754 758 763 768
622 621 619 618 617 615 612 610 611 613 616 619 621 621 622 624 627 631 635 637 640 644 647 648 650 652 655 657 660 663 667 671 675 678 681 684 687 690 694 697 700 704 707 710 712 714 717 719 722 723 724 726 729 731 733 735 738 741 746 751 754 758 763
624 622 619 617 617 615 613 610 610 612 613 615 618 621 625 627 628 629 630 633 637 641 642 642 644 647 650 652 655 660 663 666 669 671 673 676 679 683 687 691 695 699 703 706 709 712 715 717 719 720 722 725 727 729 730 732 734 739 743 747 751 754 759
624 621 618 616 616 616 615 612 610 611 613 614 617 620 624 627 629 630 630 632 634 635 634 635 638 641 645 648 652 656 659 661 663 664 666 669 673 678 682 685 689 693 697 701 705 708 711 714 718 721 723 725 726 727 728 729 732 736 741 745 748 752 757
624 621 618 616 615 616 616 615 613 613 614 615 617 619 621 624 628 629 631 632 631 629 629 632 636 639 642 645 650 653 656 658 660 662 664 668 671 675 678 681 685 689 693 697 701 704 709 713 716 720 721 722 723 724 725 728 732 736 740 743 747 750 755
628 626 624 621 619 618 619 619 617 615 615 616 618 619 620 622 624 627 630 630 628 629 631 634 637 639 642 645 648 650 653 655 657 660 663 667 670 673 676 680 684 688 691 695 698 702 706 709 712 714 716 717 719 722 724 727 732 738 741 744 747 751 754
631 630 629 627 625 623 623 623 622 620 618 617 617 619 620 620 621 623 625 625 626 629 631 633 635 637 640 643 645 648 650 653 655 658 661 664 667 671 675 678 681 684 687 690 694 697 701 704 706 709 711 713 716 720 724 727 731 736 740 744 750 753 754
634 633 632 631 630 628 627 627 626 625 623 621 620 620 620 620 621 621 621 621 623 626 627 630 632 633 635 637 640 643 647 650 654 658 661 664 668 671 674 676 677 679 683 686 690 693 695 697 700 702 704 707 711 716 721 725 728 731 733 739 748 754 757
636 635 633 633 632 631 631 630 629 628 626 624 623 623 622 623 623 622 621 620 620 622 623 625 627 629 630 632 633 636 639 643 647 651 656 660 664 667 670 673 674 676 679 682 685 687 689 690 692 694 696 700 704 708 714 719 723 725 727 732 741 751 757
638 636 635 635 634 634 634 634 633 633 631 629 627 626 625 625 625 624 623 623 622 622 621 620 621 623 624 626 627 630 632 635 638 642 646 651 655 660 664 667 670 673 674 675 677 679 681 682 683 685 690 695 699 702 707 712 716 719 722 727 735 746 754
641 639 638 637 636 635 635 635 635 636 635 634 632 630 628 627 626 626 625 625 625 625 623 620 618 617 617 618 619 621 624 626 629 631 633 636 640 647 653 659 663 665 664 663 664 666 668 671 675 680 686 691 694 698 703 708 712 714 716 721 731 743 750
641 640 640 639 638 637 636 636 636 636 636 636 636 634 633 631 630 629 627 627 627 626 626 623 620 618 616 615 614 615 618 621 625 627 628 628 629 634 640 646 651 654 655 655 656 658 660 665 673 682 689 693 694 694 698 704 707 707 708 714 728 740 745
641 640 639 639 639 638 638 638 637 637 637 637 637 637 636 635 633 632 630 629 628 628 627 626 624 622 620 618 617 617 618 619 622 626 628 628 627 629 634 639 643 646 650 652 653 654 655 658 665 674 683 692 695 693 693 697 701 701 702 710 725 737 742
642 642 641 640 640 639 639 639 639 639 638 638 637 638 637 637 636 635 633 632 631 630 629 629 628 626 624 623 621 619 617 617 618 619 621 623 625 628 631 636 640 644 647 648 649 650 650 652 658 663 670 680 688 692 696 700 701 699 701 709 723 734 740
645 644 644 643 643 643 642 641 641 640 639 638 638 638 638 638 637 637 636 635 633 633 632 631 631 629 628 626 624 621 618 616 615 614 616 619 623 626 629 633 640 644 647 649 650 651 652 654 658 663 667 671 677 687 697 702 702 700 703 710 720 730 736
Wind_Speed
17 17 17 16 16 17 18 19 20 22 28 31 34 37 39 39 40 39 39 42 43 43 43 43 43 44 45 46 47 45 43 41 40 38 37 36 36 35 35 35 35 35 35 35 35 35 34 32 32 31 31 29 28 27 25 26 26 26 25 25 24 23 23
15 16 16 16 16 18 20 19 20 23 28 31 34 36 38 39 40 40 40 41 43 43 44 45 44 45 46 46 45 44 43 42 40 38 36 35 35 36 36 36 35 36 36 36 36 35 34 32 32 31 31 30 28 27 26 27 28 26 26 25 24 24 24
16 16 16 17 17 19 20 19 19 24 28 31 32 34 37 40 42 43 42 41 42 43 43 44 46 46 46 45 44 43 43 43 41 40 37 36 36 36 36 36 36 36 36 36 35 34 34 33 32 31 31 30 29 28 28 29 29 27 25 26 25 25 25
16 17 18 19 19 18 18 18 19 24 29 33 35 37 40 43 44 43 43 42 43 43 44 46 47 46 46 45 43 42 43 43 42 41 39 37 37 36 35 35 36 36 35 35 35 34 34 33 32 31 31 31 30 30 30 30 30 28 26 26 27 27 26
16 17 17 16 17 16 16 18 19 23 30 34 36 38 41 43 42 41 42 43 43 45 46 46 46 46 46 45 44 42 42 43 43 42 39 38 36 36 36 36 36 36 35 35 35 35 34 33 32 32 32 32 32 31 31 31 31 30 29 29 29 29 29
15 16 16 15 16 17 18 19 21 26 32 34 37 39 39 38 37 39 41 41 41 43 43 43 43 44 45 45 44 41 41 42 43 42 40 38 37 37 37 37 37 37 36 35 35 35 35 34 33 33 33 33 33 33 32 32 33 32 31 31 31 31 31
15 16 16 16 16 17 19 19 21 27 34 35 37 37 35 35 36 39 39 39 41 41 40 41 43 44 44 44 43 41 40 41 42 41 39 38 37 38 38 37 37 37 36 35 35 36 35 35 34 33 34 34 34 34 34 34 34 34 33 33 32 32 32
16 16 16 17 18 18 19 19 19 24 30 32 31 31 32 34 36 37 37 39 40 40 40 43 44 45 44 42 41 41 41 41 41 40 39 38 38 39 39 38 37 37 35 35 35 36 36 35 34 34 34 34 35 35 35 35 36 36 35 35 34 34 33
17 17 17 17 18 17 17 18 18 20 24 27 29 30 33 34 34 36 38 39 38 39 42 45 45 45 43 42 41 41 41 40 40 40 39 39 39 40 40 38 37 36 35 36 36 36 36 36 35 34 35 35 36 36 36 37 37 38 37 37 36 35 34
14 15 16 16 17 16 16 15 15 15 17 20 25 29 31 33 35 36 37 38 38 41 44 45 43 42 41 41 40 39 40 40 40 39 38 39 40 41 40 38 37 36 36 36 35 35 36 35 35 35 35 36 36 37 38 39 39 39 39 39 38 37 35
12 13 14 15 15 15 16 14 13 14 14 16 22 27 30 32 34 35 36 38 40 42 43 43 41 40 40 40 38 38 39 40 39 39 39 40 41 41 40 38 36 36 36 36 35 35 35 34 35 35 36 37 38 39 40 40 41 41 40 40 39 38 37
12 12 13 16 16 16 16 14 14 15 14 15 21 26 28 31 33 35 37 40 41 41 41 41 41 39 39 39 38 38 39 40 40 40 40 40 40 40 39 37 36 36 36 37 36 35 34 35 36 36 38 39 39 40 41 41 42 42 42 41 40 39 38
11 12 14 16 16 15 14 13 14 16 16 17 22 27 29 30 33 34 35 38 40 40 40 40 40 39 39 39 39 39 40 41 42 41 40 40 40 39 38 37 36 36 36 37 36 36 35 35 37 38 39 40 40 41 42 42 42 43 42 41 40 40 39
10 11 13 13 14 14 14 14 15 16 16 17 21 26 28 30 33 34 35 37 38 38 39 39 39 39 40 40 39 40 42 43 42 41 40 39 39 38 37 36 36 36 36 36 36 37 37 37 38 39 40 40 41 41 41 41 43 43 42 41 40 41 39
11 12 14 15 15 15 15 15 15 16 17 17 18 22 26 28 31 33 33 35 36 38 40 40 40 40 40 39 40 42 43 42 40 40 39 37 37 38 37 36 36 36 36 36 37 38 38 38 39 39 39 40 41 41 40 41 43 44 44 42 41 41 40
13 13 15 15 16 15 15 16 16 16 16 16 16 20 24 26 30 32 34 35 36 38 39 38 39 39 39 40 42 42 41 40 39 38 37 37 37 37 37 36 36 36 36 37 37 38 39 39 38 38 39 39 40 40 40 42 44 45 45 44 43 42 40
12 13 14 14 15 15 15 16 15 14 15 16 18 21 25 28 31 33 34 35 36 38 38 38 38 38 39 41 42 39 38 38 38 37 37 37 37 37 36 35 35 36 37 38 39 39 39 39 39 39 39 39 39 40 40 42 44 45 45 45 44 43 40
11 12 13 13 14 14 15 16 16 15 16 17 19 22 26 29 29 30 32 34 37 38 37 38 38 39 40 41 38 36 37 38 37 37 37 37 37 37 35 35 35 36 38 39 40 40 39 39 40 40 40 39 38 39 41 43 45 45 45 45 46 45 40
9 10 10 11 12 14 15 15 16 17 18 18 20 26 31 32 31 31 35 38 38 36 35 37 38 38 39 38 36 36 37 37 36 37 37 38 38 36 35 35 37 39 40 40 40 39 39 40 41 41 41 39 39 40 41 43 44 45 45 45 47 44 38
7 8 8 8 9 11 13 13 13 15 17 21 26 31 33 34 34 35 37 37 35 34 35 36 37 37 38 37 36 37 37 36 37 38 37 37 36 36 36 39 40 41 41 39 38 39 40 41 41 41 41 41 41 41 41 43 44 45 45 45 45 42 37
6 7 7 6 7 8 9 12 13 13 15 21 28 30 30 31 33 33 32 32 33 35 37 38 38 39 38 37 36 36 36 37 38 38 37 36 36 37 39 41 41 41 40 39 39 41 41 41 41 41 41 41 41 40 41 43 44 44 45 44 42 40 37
4 4 6 6 7 7 7 7 10 13 18 24 27 27 29 32 33 31 31 33 34 35 37 37 36 36 35 34 35 36 37 38 38 36 36 36 37 39 40 41 41 42 41 40 39 40 40 40 40 41 40 40 41 41 41 42 43 43 44 43 40 39 36
5 6 6 5 5 7 8 7 7 9 14 20 24 28 30 32 33 32 30 31 32 32 33 33 32 33 34 34 35 37 38 39 38 37 37 37 39 40 40 40 41 42 41 39 38 39 40 40 39 40 41 41 41 41 41 41 41 42 43 41 38 37 37
5 6 7 7 6 4 5 9 10 8 10 15 20 28 32 31 31 29 27 27 30 30 30 30 32 34 34 35 38 39 40 40 40 38 38 39 41 41 40 41 41 41 40 39 40 41 41 39 38 38 41 42 42 42 42 40 40 41 40 39 38 38 39
7 7 7 8 9 9 7 5 9 11 11 12 17 23 27 29 31 29 26 26 28 28 27 29 33 35 36 38 41 40 40 40 41 41 41 42 42 41 41 42 41 40 39 40 40 40 38 37 37 37 39 40 41 42 42 39 38 39 38 36 37 39 41
8 8 8 9 11 13 12 4 5 10 12 14 18 18 17 21 25 25 26 27 26 25 27 33 36 37 39 41 40 38 39 40 42 43 44 44 44 43 43 42 39 38 39 39 39 37 35 35 36 35 35 36 37 39 39 38 37 37 36 35 36 38 40
8 9 9 9 12 15 14 9 4 6 7 11 15 15 14 16 17 19 22 23 23 26 33 39 40 41 41 40 37 36 39 41 43 45 46 45 44 42 41 41 40 40 40 39 38 35 32 32 31 29 28 30 32 34 35 37 38 36 34 33 34 38 39
9 11 13 15 17 17 15 12 9 7 4 1 6 12 17 18 17 17 17 16 21 31 36 36 36 37 37 35 33 33 36 38 40 41 41 40 39 38 38 39 39 39 39 38 36 32 29 27 25 24 24 26 30 33 33 34 35 34 33 31 32 35 37
9 9 11 13 16 18 15 10 9 11 10 7 3 7 16 21 20 17 16 17 24 29 26 23 25 28 29 28 28 30 33 35 37 38 36 35 36 36 35 34 34 35 35 34 32 28 26 25 26 26 25 26 29 30 28 27 27 26 28 29 29 31 33
9 9 9 9 12 16 15 10 8 12 12 10 7 2 9 17 20 17 17 21 25 24 21 21 21 22 24 25 26 28 30 31 33 34 34 34 34 34 32 32 33 34 35 34 32 28 26 27 28 28 27 26 26 22 18 20 22 21 22 24 24 26 30
7 7 8 9 12 15 14 11 10 11 11 11 10 7 2 6 12 15 18 24 25 22 22 22 22 22 24 26 26 26 26 26 27 28 29 29 30 30 31 33 34 34 33 32 31 29 29 30 31 32 31 28 24 20 18 20 22 20 19 20 20 22 28
7 7 7 8 11 13 13 11 12 11 11 12 12 10 8 5 3 6 12 20 23 23 24 24 23 24 26 27 28 29 28 27 27 28 29 30 32 33 35 36 35 32 31 31 31 31 31 32 33 34 31 28 25 25 24 22 22 22 22 21 20 24 30
7 7 8 8 10 12 10 8 8 9 9 12 15 15 13 10 9 9 8 11 15 20 25 27 27 27 27 28 29 29 30 31 32 32 33 34 36 37 38 37 35 33 32 33 34 33 33 34 35 33 29 26 27 30 29 27 26 26 27 26 24 27 34
5 6 7 9 10 11 9 7 6 7 7 9 13 17 16 14 13 11 8 8 10 12 17 24 30 32 32 34 35 35 35 36 37 38 41 42 43 41 38 37 37 37 39 42 42 40 38 36 32 28 27 26 28 31 30 28 29 31 31 28 26 30 36
5 5 7 8 9 9 9 7 7 7 7 8 11 14 15 15 14 13 10 9 10 12 13 16 20 23 26 29 31 31 30 28 26 27 30 34 39 41 40 41 43 42 43 45 46 45 41 35 27 24 25 28 31 32 29 28 32 35 33 29 27 33 36
7 6 8 10 11 10 9 8 9 9 9 10 12 13 13 14 13 12 12 11 10 11 14 16 16 16 17 18 18 18 18 19 20 20 21 25 30 32 30 32 36 38 38 38 39 42 45 42 37 35 34 33 33 33 33 36 39 36 32 29 29 32 33
7 7 9 12 11 10 9 9 9 9 10 11 12 11 11 12 12 12 11 10 8 9 10 11 12 13 12 11 12 17 20 23 25 26 27 28 30 30 28 26 25 26 30 33 37 43 48 47 44 45 45 41 37 33 32 36 37 34 32 31 29 28 29
10 10 11 12 12 10 10 10 9 9 10 11 12 10 9 8 9 9 9 9 9 8 8 8 8 8 7 7 12 17 22 24 25 26 28 27 26 27 29 27 21 15 15 20 28 36 41 41 42 45 45 42 40 36 31 29 31 32 31 30 27 26 29
Wind_Direction
199 201 200 201 201 201 202 201 199 200 200 201 201 201 200 200 200 199 200 201 202 203 202 202 203 204 205 208 210 211 212 213 214 216 216 215 216 217 219 220 221 222 222 221 222 222 223 223 220 220 222 224 225 225 226 224 218 218 219 220 222 226 227
200 205 202 200 202 203 204 202 200 200 200 202 203 201 200 201 200 199 200 201 202 203 203 203 204 205 207 209 210 211 212 213 215 216 215 215 216 217 218 220 220 222 223 223 224 223 222 221 219 220 221 223 224 224 224 221 217 218 220 220 223 226 227
201 205 202 201 203 203 203 201 201 202 202 202 202 201 201 202 201 200 200 200 201 203 203 204 205 207 208 209 210 211 212 213 214 215 215 215 215 216 217 219 221 222 223 224 224 222 221 221 220 220 221 223 223 223 222 220 217 218 221 222 223 224 226
203 204 203 204 204 203 203 201 202 203 203 204 203 201 202 203 202 201 200 200 200 201 203 204 206 207 209 210 210 211 211 213 214 215 215 216 216 216 215 216 219 221 223 224 223 221 221 221 220 219 220 222 223 222 221 220 218 219 222 224 224 224 227
204 206 205 205 203 203 204 203 203 203 204 206 204 204 205 204 202 201 201 202 201 202 204 205 205 207 209 210 211 211 212 212 214 215 215 215 215 215 215 215 217 219 222 223 223 222 222 222 220 218 218 220 221 221 220 220 219 219 222 225 225 225 228
202 205 205 204 202 203 204 204 204 204 204 205 204 206 206 202 200 201 202 202 202 204 204 205 206 207 209 210 211 211 211 213 214 215 215 215 214 215 216 217 217 219 221 223 224 224 223 223 220 218 217 218 219 219 219 220 220 220 223 225 226 227 228
203 204 203 203 202 202 204 205 205 204 204 205 205 205 203 199 200 201 201 201 202 203 203 204 207 208 209 210 211 211 211 212 214 214 214 213 214 215 217 217 218 219 221 222 224 224 223 222 220 218 218 217 217 218 219 220 220 221 224 225 226 226 226
208 204 202 202 202 203 204 204 205 203 203 204 204 202 200 199 200 199 199 200 201 201 202 205 207 208 209 209 209 210 211 212 213 213 213 212 213 216 217 217 217 218 219 221 223 224 223 221 219 217 217 217 217 217 218 220 220 221 223 224 225 224 224
211 207 204 201 201 204 205 204 204 200 199 199 199 200 199 198 198 198 199 199 199 200 203 206 207 207 207 208 209 209 210 211 212 212 212 211 213 215 216 216 216 215 217 219 221 222 222 220 218 216 216 217 217 217 218 220 221 221 222 223 223 223 223
214 210 210 205 202 205 206 204 202 198 197 197 198 199 197 197 198 199 199 198 198 202 205 206 207 207 206 207 208 208 209 211 212 211 211 210 212 215 215 214 213 213 215 217 219 220 220 219 217 215 215 216 216 216 217 219 220 221 222 223 223 224 223
216 213 214 210 205 206 205 201 197 196 196 196 197 197 196 196 197 197 197 198 200 203 205 205 206 205 205 206 206 207 209 210 211 211 211 211 212 214 214 213 211 211 213 215 216 218 218 216 215 214 215 215 216 217 218 219 220 221 221 222 223 224 224
215 211 211 211 208 208 205 199 195 194 195 195 196 197 196 196 196 197 198 199 200 202 203 204 204 204 204 205 205 206 208 210 210 211 211 211 213 214 213 212 210 210 212 213 214 215 216 215 214 214 215 217 218 218 219 219 220 221 221 222 222 223 224
216 211 211 211 210 210 205 197 195 194 193 195 195 195 196 195 196 197 197 199 201 202 202 202 202 202 203 204 204 206 208 209 211 211 211 212 213 214 213 211 210 210 210 212 212 213 214 214 215 215 216 217 218 219 219 219 219 221 221 220 221 222 223
220 216 215 212 211 211 205 200 198 195 194 195 194 194 195 195 196 197 197 199 200 200 201 201 201 201 202 203 204 205 208 210 210 211 211 212 212 213 213 212 211 210 210 209 210 211 212 214 215 216 217 218 219 219 219 218 219 220 220 219 219 221 222
221 218 216 211 207 205 204 204 200 195 195 193 191 191 192 193 196 196 198 199 198 199 201 199 198 200 201 203 205 206 207 208 209 210 210 210 211 212 212 211 210 210 209 209 209 210 212 214 215 215 216 217 218 219 219 219 220 221 219 218 218 220 222
222 221 217 211 205 200 202 204 202 198 195 190 188 190 190 191 193 194 196 197 198 200 200 198 198 200 201 204 206 206 206 206 207 208 208 208 210 211 211 210 210 209 209 209 209 210 211 213 214 214 216 217 217 218 218 219 222 222 221 219 218 219 220
224 224 220 213 204 198 198 200 201 197 192 190 192 191 190 191 192 194 195 196 197 199 198 196 198 200 202 206 207 205 203 204 205 205 206 207 209 210 210 209 208 209 209 209 209 209 210 210 211 213 215 216 217 216 217 221 223 223 222 221 220 219 218
231 227 221 212 202 196 197 198 197 193 192 194 194 192 193 192 191 192 194 196 198 198 196 195 198 201 204 207 206 202 202 202 202 203 205 206 207 207 208 207 207 209 210 209 209 208 208 208 210 212 214 215 216 216 219 222 225 225 224 222 221 220 216
252 249 239 224 207 197 196 197 196 193 194 194 192 193 194 192 189 192 195 196 197 195 192 195 199 202 206 207 204 202 202 200 200 202 204 205 205 205 204 205 207 209 210 210 209 207 206 208 209 211 212 213 215 217 220 224 226 226 226 224 223 218 210
249 263 268 256 233 211 199 197 198 198 197 194 193 194 194 192 192 195 197 196 194 191 191 196 200 203 207 206 203 202 200 198 199 202 204 204 203 201 202 205 208 210 210 210 208 206 207 207 208 209 211 212 215 217 221 224 226 227 227 227 224 215 205
233 242 256 258 251 236 212 198 194 194 196 196 195 193 191 193 196 196 195 193 191 191 194 197 200 204 206 204 202 201 199 198 199 201 202 202 201 200 203 205 207 209 209 208 207 208 208 207 207 208 209 212 214 217 220 224 226 227 228 228 223 213 204
285 262 251 238 231 231 228 219 208 199 196 194 191 189 189 193 195 194 193 194 194 195 198 199 201 205 205 203 201 200 198 198 199 200 200 200 200 202 204 205 207 209 208 208 208 209 210 209 207 207 208 211 213 216 220 224 226 227 229 228 220 210 201
347 335 313 286 250 221 208 213 229 224 207 195 188 188 191 194 194 193 193 195 196 198 199 200 203 205 204 203 202 200 200 198 198 198 199 198 200 203 205 206 208 208 207 206 207 209 210 210 207 206 208 210 212 215 219 223 226 227 228 226 217 204 197
358 2 353 347 342 313 225 206 207 212 209 203 197 194 193 192 191 192 193 194 196 198 198 201 205 206 204 204 203 202 201 199 198 198 198 199 202 204 204 206 208 208 207 206 207 209 211 209 207 207 209 210 211 214 218 222 225 227 227 224 214 201 197
356 6 3 8 10 351 322 255 206 191 183 195 209 206 198 192 189 188 192 195 195 196 198 203 207 207 206 207 207 205 201 199 198 198 199 202 203 204 205 207 208 207 207 207 209 212 212 208 207 208 209 210 212 215 218 220 223 226 225 221 214 202 197
357 356 354 4 9 355 344 341 182 182 182 194 209 213 208 202 195 191 193 194 192 194 201 206 208 208 209 211 209 206 202 200 199 200 202 203 204 204 205 206 206 206 206 207 210 212 211 209 208 208 208 209 212 215 217 217 221 224 222 219 215 203 196
357 357 357 0 10 8 2 10 76 151 187 204 209 211 210 206 205 205 201 194 191 198 205 208 208 209 211 212 210 206 204 203 203 203 205 205 204 203 204 204 204 203 203 206 209 210 209 208 207 206 207 209 211 214 216 217 220 222 219 218 215 204 196
6 6 2 359 7 14 9 8 32 56 62 134 197 205 200 193 197 208 207 199 203 208 209 209 210 211 212 212 210 209 207 206 206 207 207 207 204 203 204 204 203 202 202 204 206 206 204 201 198 197 200 205 210 213 214 215 218 220 218 215 213 207 203
20 14 8 1 0 4 6 6 12 16 21 36 82 187 192 188 192 199 201 207 217 219 217 217 217 216 216 215 213 212 211 210 210 209 208 207 205 203 204 203 201 201 202 202 201 198 193 187 185 185 188 196 204 209 210 209 210 215 219 215 210 209 211
28 20 13 8 359 0 6 8 359 360 7 17 25 67 187 190 192 194 199 211 219 221 220 221 219 216 216 216 216 216 215 213 212 210 208 206 204 202 202 200 199 200 200 199 195 188 179 175 175 175 179 188 195 196 193 191 191 200 213 213 211 214 216
31 29 19 15 10 6 6 1 353 353 359 6 11 10 340 207 194 194 204 212 214 214 214 215 213 211 211 212 213 215 215 213 212 210 208 205 203 202 201 200 198 197 196 193 187 179 171 169 171 174 178 185 184 171 167 177 183 191 201 204 211 223 222
24 24 22 21 18 15 12 4 355 349 348 355 2 2 352 333 278 242 226 215 209 208 208 206 205 205 205 205 207 208 207 205 203 203 203 202 201 203 203 202 198 194 188 184 181 177 173 172 174 177 181 181 171 159 162 174 182 188 191 189 199 219 223
24 17 18 19 16 19 22 18 7 359 347 345 349 350 345 334 324 312 272 226 211 207 203 198 196 197 197 199 201 201 199 198 197 197 196 197 199 201 202 201 196 189 184 182 180 178 178 178 180 180 179 172 161 158 165 174 179 186 188 184 191 213 220
31 22 20 18 16 20 24 21 19 18 5 349 346 344 341 338 335 325 288 249 240 231 214 201 195 194 195 197 197 196 196 198 198 196 194 192 193 195 196 195 193 190 189 189 185 183 183 182 179 176 170 162 157 158 164 172 180 186 184 179 190 211 216
38 36 28 21 22 30 30 19 16 22 21 8 357 350 347 346 345 341 325 294 276 270 259 236 216 206 202 200 197 195 195 196 197 196 193 188 187 188 190 192 193 195 196 195 193 191 184 173 163 163 163 162 163 163 164 173 184 186 177 173 190 208 211
30 31 24 19 24 33 34 26 21 22 17 10 5 3 360 355 351 349 343 326 307 296 288 276 261 244 227 213 202 193 185 179 179 183 183 181 179 177 178 185 192 195 196 195 194 191 184 175 172 174 173 175 179 179 178 182 185 179 168 172 192 207 209
32 27 19 18 19 19 18 20 26 26 17 10 6 3 358 354 353 353 351 344 332 321 306 290 278 266 250 227 206 192 181 174 172 172 172 175 176 171 165 167 177 188 192 191 189 186 182 181 182 181 180 183 186 184 185 186 180 169 165 175 191 204 206
35 35 29 23 20 14 6 5 11 16 13 5 356 348 343 344 345 346 351 352 347 340 335 321 296 270 241 202 185 183 178 171 165 164 164 166 169 169 165 159 152 146 156 171 178 178 177 180 183 182 181 181 178 176 182 185 175 167 168 175 186 198 201